Wind_Speed
19 18 21 20 14 19 16 20 22 29 32 30 30 29 26 24 24 22 21 24 24 29 32 32 33 36 37 38 41 40 34 31 29 30 32 30 25 19 12 3 5 13 17 15 16 14 5 7 8
20 19 20 19 17 22 26 24 24 26 26 27 27 28 21 25 22 19 23 24 26 25 31 38 36 37 38 37 34 27 27 29 31 32 30 24 15 12 9 2 7 15 17 15 13 11 7 1 4
18 18 14 14 21 17 21 28 28 28 29 30 28 24 21 24 24 27 28 28 29 31 36 38 38 35 33 27 23 26 28 30 28 29 22 14 12 11 9 7 11 13 14 14 12 9 7 2 0
21 18 11 9 25 13 21 21 22 22 28 24 23 26 25 25 24 26 26 30 30 34 36 31 25 20 19 23 28 26 25 26 26 19 13 12 10 12 11 10 12 14 15 12 9 4 5 9 5
24 24 17 10 26 22 25 26 24 18 17 24 27 27 27 29 30 31 31 33 34 34 28 19 19 20 23 26 22 22 24 21 16 9 10 11 12 13 17 17 18 18 18 21 20 10 5 9 12
23 20 24 32 25 28 29 29 28 30 35 31 32 31 30 29 28 31 32 33 30 24 19 20 22 19 18 22 21 19 16 14 6 10 13 15 16 18 17 17 20 20 24 30 30 25 11 10 10
19 33 34 25 29 21 37 40 36 41 39 33 31 30 30 30 28 28 29 26 21 19 18 17 12 16 20 15 13 14 10 4 11 13 14 17 16 16 15 17 14 15 19 21 26 25 22 8 9
41 20 34 42 43 36 31 28 29 34 34 31 32 32 29 27 26 25 22 22 17 16 15 16 18 22 10 12 10 5 8 12 13 12 16 14 15 15 13 13 14 17 18 19 20 21 19 16 7
39 34 31 35 31 39 40 36 35 34 33 28 30 28 29 27 22 22 21 18 15 15 15 16 14 6 8 5 8 11 12 14 14 12 9 12 14 14 14 12 15 18 21 17 18 23 28 25 16
40 42 41 41 30 29 27 24 30 32 29 26 26 25 23 20 20 20 15 14 15 13 13 7 4 5 5 11 10 11 12 15 14 13 11 11 12 12 13 14 15 16 16 14 15 19 23 24 26
37 40 43 45 35 25 22 21 24 24 23 22 21 19 19 21 19 18 18 16 13 8 5 4 1 6 11 11 9 10 14 15 16 12 9 11 12 12 14 14 15 16 15 15 12 10 9 13 13
30 31 27 29 28 29 27 24 22 20 18 18 21 21 19 17 17 14 11 10 4 4 6 3 7 13 13 11 14 14 16 14 13 13 12 11 11 13 14 14 16 16 16 13 10 10 7 9 14
13 15 20 26 27 25 22 24 20 16 16 16 17 16 13 10 8 5 5 4 6 7 7 10 15 15 12 14 14 15 15 14 12 10 10 11 11 11 12 14 17 14 13 14 13 10 8 8 16
7 10 11 20 22 20 16 13 18 16 15 13 10 9 7 5 3 4 7 8 7 9 16 18 16 14 15 13 13 13 12 10 10 8 11 11 11 11 15 13 15 19 18 16 16 10 5 2 4
7 3 3 10 13 16 15 18 17 10 11 11 12 10 5 6 11 12 10 8 12 19 20 16 15 16 15 15 13 12 10 10 10 11 13 13 14 14 14 15 19 22 21 23 19 14 10 6 10
14 10 6 5 4 13 14 18 15 13 12 9 9 11 11 9 14 14 12 18 21 20 18 16 17 15 16 14 12 9 8 10 11 13 15 16 15 14 17 17 20 24 23 24 21 17 16 10 11
16 15 11 7 5 12 12 15 10 10 10 10 10 11 13 14 13 16 23 21 21 20 18 19 18 17 15 12 9 7 8 10 11 13 14 14 15 16 19 21 23 25 25 25 24 22 17 14 16
19 20 15 12 6 9 10 16 12 12 15 15 13 11 12 13 18 23 23 24 21 19 20 19 18 17 13 9 6 5 6 8 10 12 13 13 14 17 21 25 28 30 30 26 27 24 21 22 24
23 23 21 13 12 5 12 6 5 9 11 12 11 9 14 17 23 22 21 21 20 20 19 19 17 15 11 7 4 3 5 8 10 13 12 13 15 18 23 25 27 30 31 27 25 25 27 26 25
27 27 27 20 13 10 6 16 9 2 6 8 11 15 19 23 21 22 22 21 19 20 19 17 15 12 9 5 2 2 5 8 11 11 11 12 14 17 21 24 27 30 30 32 30 26 25 26 23
33 34 32 26 18 13 10 17 8 4 5 9 14 17 17 16 18 20 24 25 24 21 19 17 15 12 8 4 0 3 7 8 11 12 13 13 15 19 22 24 27 31 33 33 31 31 28 26 27
39 44 35 31 25 20 15 11 19 11 9 12 17 14 13 16 17 18 20 21 21 20 18 16 14 11 8 5 4 5 9 10 11 12 12 15 17 19 22 25 28 29 32 34 33 33 34 31 28
55 43 39 35 30 24 15 16 18 15 16 18 20 16 15 18 21 21 18 17 16 15 14 12 12 11 10 9 7 8 11 12 14 15 15 16 19 20 23 26 28 30 30 32 34 34 33 33 33
60 48 45 41 35 25 25 20 17 21 18 18 20 17 19 20 22 22 21 18 18 17 16 15 14 13 12 12 11 11 14 15 16 17 17 18 20 23 23 26 28 30 32 33 35 37 36 34 34
61 56 50 46 37 33 38 28 29 25 24 24 24 23 22 23 26 25 19 18 18 18 17 16 14 14 15 14 15 16 18 20 19 19 19 19 21 24 26 27 29 32 33 35 35 36 37 37 36
56 59 56 51 46 46 44 33 39 34 29 28 25 26 28 28 33 28 24 22 20 20 18 16 17 16 15 16 18 20 21 23 22 22 22 21 22 25 29 30 32 33 35 36 38 39 40 38 38
39 51 63 57 55 51 44 40 43 39 34 33 32 31 32 34 37 32 28 25 24 25 20 18 19 21 20 20 22 21 23 26 25 23 25 26 25 27 30 31 34 36 37 39 41 41 42 43 42
29 36 51 57 59 55 53 50 45 47 44 41 37 36 41 38 36 36 33 34 30 29 26 24 23 25 25 23 25 25 26 28 28 26 28 29 29 31 33 34 35 37 40 42 44 45 45 46 48
41 40 34 44 57 61 57 49 53 55 53 47 47 44 41 37 38 37 37 38 34 35 34 31 31 29 30 28 28 30 31 32 31 31 31 31 33 36 38 37 38 39 42 45 49 49 49 49 50
37 39 39 32 34 50 63 56 65 63 58 56 52 49 48 44 40 37 37 41 33 37 37 35 36 36 34 36 33 33 34 36 36 36 37 36 37 40 40 40 41 42 44 47 50 54 55 56 56
Wind_Direction
212 219 207 214 222 219 233 232 228 232 240 254 259 269 260 263 275 261 248 260 275 274 266 275 285 286 290 296 300 304 312 319 325 324 323 328 329 333 347 352 318 347 351 353 357 13 40 89 82
220 227 222 238 255 271 248 242 253 247 257 260 265 264 255 264 268 247 265 265 277 276 273 286 288 289 292 297 301 310 316 320 325 325 327 331 343 355 31 352 318 339 342 336 339 1 34 111 111
213 221 227 265 261 285 237 237 244 248 256 270 259 264 262 259 262 269 273 276 278 287 289 291 290 291 296 304 313 316 317 323 327 328 336 358 358 24 40 11 340 339 333 336 327 347 42 58 138
208 203 211 298 232 237 243 232 239 244 256 261 260 272 272 273 275 276 274 278 288 289 293 290 296 305 313 311 308 317 323 324 324 333 3 1 22 44 37 22 32 37 21 19 3 352 59 65 56
206 202 228 284 213 204 227 228 231 227 251 256 263 268 273 275 277 278 280 283 286 293 293 301 304 315 305 307 312 320 320 322 327 359 26 52 64 65 71 56 50 53 48 46 42 34 71 68 63
198 187 223 231 225 222 224 230 230 250 274 274 265 265 269 272 275 277 281 284 287 292 294 300 298 299 305 310 320 323 326 326 353 63 69 69 75 81 66 67 71 61 60 55 52 51 53 70 75
200 225 215 222 233 251 227 234 252 270 276 272 263 265 265 268 274 277 281 284 288 293 296 303 303 298 311 329 331 329 338 9 90 90 74 82 74 69 64 73 63 46 49 45 46 49 55 89 79
199 232 228 241 247 252 261 263 265 267 271 267 267 267 268 270 272 277 281 284 283 286 295 295 300 308 328 328 330 23 76 98 102 97 86 81 74 70 65 58 52 42 49 34 51 45 51 61 94
215 220 226 233 251 251 261 273 273 267 265 263 261 267 269 267 270 276 283 283 274 283 292 305 316 344 332 8 85 101 103 101 98 109 78 75 69 59 59 56 43 44 41 48 52 62 57 55 53
215 221 237 228 250 249 247 255 260 261 265 263 263 267 268 276 278 281 277 276 274 278 304 309 332 340 68 103 102 97 110 110 99 97 90 63 59 56 40 41 31 34 40 41 56 78 63 51 49
217 221 228 233 245 252 250 266 269 265 262 267 268 265 273 282 279 277 270 261 277 279 274 279 330 101 113 109 100 96 116 106 94 86 74 52 50 46 44 36 34 33 29 36 50 54 53 23 30
217 225 242 254 261 267 271 279 264 263 268 269 273 278 278 275 274 272 262 259 258 211 243 175 132 128 117 105 104 101 95 96 82 69 63 57 51 43 35 28 37 29 28 25 30 33 36 24 28
231 246 260 267 262 262 266 256 243 245 248 254 263 268 270 271 277 279 254 210 200 217 178 142 133 128 124 121 103 95 87 84 82 77 63 46 37 40 34 37 32 23 17 13 16 19 25 69 58
315 311 284 276 276 274 269 263 256 238 235 241 242 254 255 271 218 220 227 216 211 182 141 140 133 130 123 108 105 96 84 73 62 44 42 35 25 24 32 33 19 17 7 0 356 351 345 171 23
260 277 317 269 268 251 245 242 233 213 208 214 197 198 208 277 267 248 231 198 172 143 138 142 136 132 122 108 102 92 76 66 47 29 33 23 23 20 20 19 12 8 3 2 8 354 350 281 297
259 261 279 330 313 247 227 234 219 191 189 208 204 207 235 240 270 246 189 163 149 143 144 140 134 133 122 112 103 88 75 55 38 26 20 18 15 23 17 13 6 6 359 1 358 356 354 352 301
244 263 264 273 315 271 227 197 191 200 201 214 225 241 239 250 240 202 160 157 150 149 146 141 140 133 118 109 101 77 61 41 26 20 18 13 21 18 17 13 8 4 2 0 1 359 356 359 355
232 252 248 260 256 313 199 165 188 207 215 225 229 240 237 212 184 170 157 157 156 153 147 145 142 132 123 119 99 69 48 30 18 16 15 17 18 19 18 19 19 13 10 4 9 10 0 354 348
234 241 247 242 256 193 194 209 207 220 214 207 206 202 198 178 171 164 161 159 158 157 155 153 145 136 131 118 94 70 32 17 11 7 8 17 15 14 19 17 15 18 14 11 6 12 10 4 351
250 241 238 241 232 242 178 222 253 198 166 185 189 197 174 168 175 168 164 166 166 164 160 157 150 142 139 144 97 16 5 7 2 1 4 5 4 8 11 10 8 12 14 15 9 4 359 357 353
237 243 237 232 227 239 216 208 228 228 170 188 171 171 171 180 185 184 175 172 173 172 169 168 167 165 180 182 205 332 345 350 356 355 355 354 350 0 1 360 1 5 5 8 8 7 359 354 352
235 233 235 232 224 216 230 213 225 219 209 181 172 187 191 183 190 194 182 181 180 178 180 180 181 192 213 236 288 323 334 339 344 343 346 348 350 349 349 349 354 357 0 359 1 1 358 352 347
237 234 236 234 230 217 213 242 226 224 207 192 200 191 185 192 191 194 195 194 192 192 192 195 206 210 226 243 277 305 324 323 331 334 340 344 350 347 347 343 346 351 353 355 355 358 355 352 349
236 237 235 235 231 220 222 232 230 233 231 212 214 215 193 202 204 204 199 205 199 201 207 211 217 225 232 248 267 294 311 315 320 326 329 334 335 338 338 338 342 344 347 349 351 351 352 352 348
232 234 233 232 229 224 228 209 229 230 221 220 217 216 215 204 214 207 216 215 220 221 221 227 233 235 243 251 267 287 303 310 312 320 322 321 322 322 324 333 336 338 343 344 344 345 346 349 346
237 234 233 231 228 228 227 211 230 218 227 221 219 225 220 214 218 216 218 227 236 238 235 236 243 245 244 256 262 273 287 296 302 312 317 319 316 317 319 326 330 335 338 338 338 341 342 344 345
247 241 234 231 233 227 229 224 235 222 220 231 222 222 229 228 228 227 224 224 234 243 240 245 246 250 247 251 259 265 276 286 294 303 311 312 315 315 315 323 329 331 333 333 334 336 337 339 341
249 248 246 236 235 230 227 226 226 237 222 220 226 228 226 222 231 235 231 234 236 247 251 251 253 255 256 256 260 262 270 279 288 297 303 307 309 311 312 320 325 327 329 330 333 334 335 336 338
250 250 244 247 237 236 231 228 231 231 237 229 226 228 234 232 231 238 241 239 236 239 248 256 258 256 258 257 259 264 270 278 286 291 296 303 306 306 310 316 320 324 326 328 329 329 331 332 333
261 259 252 250 258 243 237 230 233 235 232 236 237 233 231 235 236 236 244 237 239 244 245 251 256 256 257 261 259 264 274 279 285 289 295 298 299 301 305 312 316 319 324 325 325 326 327 327 330
Height
11005 11006 11008 11010 11011 11010 11013 11015 11016 11017 11017 11018 11019 11017 11018 11017 11017 11017 11017 11015 11014 11012 11009 11008 11006 11002 10999 10996 10994 10991 10988 10985 10982 10979 10975 10970 10965 10961 10958 10956 10953 10950 10946 10944 10941 10939 10936 10935 10934
11003 11005 11009 11009 11010 11012 11011 11010 11012 11014 11013 11014 11015 11013 11013 11014 11013 11013 11012 11011 11009 11006 11004 11004 11002 10998 10995 10993 10990 10988 10985 10982 10980 10976 10973 10969 10964 10961 10958 10957 10955 10951 10948 10945 10942 10940 10937 10935 10935
11003 11004 11007 11006 11003 11006 11006 11003 11007 11009 11009 11011 11012 11012 11011 11011 11011 11009 11008 11006 11004 11002 11001 10999 10996 10993 10991 10989 10987 10985 10983 10981 10978 10975 10972 10969 10965 10962 10961 10959 10955 10952 10948 10944 10941 10939 10938 10936 10936
11002 11003 11003 11004 11003 11003 11001 10998 11003 11005 11007 11008 11009 11008 11007 11007 11006 11005 11004 11003 11000 10999 10997 10994 10991 10990 10989 10987 10984 10982 10981 10979 10977 10975 10972 10969 10967 10965 10963 10960 10956 10953 10950 10945 10941 10940 10938 10936 10936
10999 11001 11001 10999 11001 11001 10998 10996 10999 11001 11003 11005 11005 11005 11004 11003 11002 11001 10999 10997 10996 10995 10993 10990 10989 10989 10987 10985 10982 10980 10979 10978 10976 10975 10973 10970 10968 10965 10963 10961 10959 10955 10952 10947 10944 10941 10939 10939 10937
10998 10999 10999 10996 11001 11001 11000 10993 10996 10997 11000 11000 11001 11001 11000 10999 10998 10997 10994 10994 10992 10991 10990 10988 10988 10988 10986 10984 10981 10979 10979 10978 10977 10976 10975 10972 10970 10968 10966 10963 10960 10957 10955 10951 10947 10944 10942 10942 10937
10994 10992 10989 10990 10993 10997 10996 10994 10996 10992 10993 10995 10996 10995 10996 10995 10995 10993 10991 10990 10989 10989 10988 10987 10986 10986 10985 10982 10980 10979 10979 10978 10979 10978 10977 10974 10971 10971 10968 10965 10961 10959 10959 10955 10951 10947 10943 10940 10939
10975 10981 10981 10986 10991 10993 10987 10989 10990 10990 10991 10993 10991 10990 10991 10991 10991 10989 10988 10987 10987 10986 10985 10986 10985 10984 10983 10981 10979 10978 10979 10979 10979 10979 10978 10976 10973 10971 10970 10966 10962 10960 10960 10958 10954 10951 10946 10943 10942
10975 10975 10976 10982 10983 10988 10986 10983 10981 10980 10986 10991 10987 10986 10986 10987 10987 10987 10985 10984 10983 10984 10984 10984 10983 10982 10982 10980 10979 10980 10980 10980 10980 10980 10979 10977 10975 10974 10971 10968 10965 10962 10961 10960 10958 10953 10948 10945 10943
10976 10978 10977 10979 10979 10979 10983 10983 10979 10975 10979 10984 10983 10982 10983 10983 10984 10982 10981 10981 10982 10983 10983 10983 10982 10982 10982 10981 10981 10982 10982 10982 10982 10981 10980 10978 10976 10975 10972 10970 10967 10963 10962 10961 10960 10956 10952 10949 10945
10973 10973 10973 10975 10979 10980 10980 10983 10977 10976 10976 10976 10977 10978 10979 10978 10980 10978 10977 10978 10980 10981 10982 10982 10981 10982 10982 10983 10982 10983 10984 10984 10984 10982 10981 10979 10977 10976 10973 10971 10968 10964 10963 10962 10961 10958 10954 10951 10948
10971 10974 10976 10976 10976 10975 10978 10975 10974 10972 10974 10974 10973 10973 10977 10975 10975 10974 10974 10976 10978 10980 10981 10981 10981 10983 10983 10984 10985 10985 10986 10986 10986 10984 10982 10981 10979 10977 10975 10972 10968 10965 10963 10961 10961 10957 10956 10953 10949
10971 10974 10973 10970 10971 10973 10971 10970 10969 10970 10971 10972 10971 10971 10972 10971 10971 10973 10974 10976 10978 10979 10979 10981 10982 10984 10984 10986 10987 10987 10987 10986 10986 10986 10984 10982 10980 10978 10976 10971 10968 10968 10965 10961 10958 10956 10954 10953 10951
10967 10967 10968 10966 10968 10967 10965 10963 10961 10964 10967 10970 10968 10968 10969 10971 10973 10974 10975 10976 10977 10978 10978 10981 10983 10986 10987 10988 10989 10989 10988 10988 10988 10987 10985 10983 10981 10977 10974 10972 10971 10968 10966 10963 10958 10955 10953 10951 10949
10967 10966 10966 10965 10964 10961 10962 10961 10961 10963 10965 10968 10971 10968 10969 10971 10973 10974 10974 10974 10975 10977 10979 10982 10984 10987 10989 10989 10991 10991 10990 10990 10989 10988 10986 10984 10981 10978 10977 10974 10971 10968 10965 10962 10958 10956 10954 10952 10950
10964 10964 10965 10962 10961 10957 10959 10961 10958 10961 10962 10966 10967 10968 10967 10971 10972 10972 10972 10974 10976 10978 10981 10982 10984 10987 10990 10991 10992 10992 10992 10991 10990 10988 10986 10985 10984 10982 10980 10976 10973 10969 10964 10960 10957 10955 10952 10951 10950
10962 10961 10961 10961 10962 10956 10957 10958 10956 10956 10958 10961 10963 10965 10967 10967 10969 10971 10972 10974 10976 10979 10981 10983 10986 10988 10989 10990 10992 10992 10991 10990 10989 10989 10988 10987 10985 10983 10980 10978 10974 10970 10965 10961 10957 10954 10952 10950 10949
10959 10958 10958 10958 10960 10956 10956 10957 10957 10956 10957 10958 10959 10961 10964 10965 10968 10971 10973 10976 10977 10979 10981 10983 10986 10988 10989 10991 10992 10992 10992 10991 10990 10990 10988 10987 10986 10982 10980 10979 10975 10971 10966 10963 10960 10956 10952 10950 10948
10953 10953 10954 10955 10955 10956 10955 10957 10956 10956 10956 10954 10956 10958 10962 10964 10968 10970 10972 10975 10978 10980 10983 10985 10987 10988 10990 10991 10992 10992 10992 10991 10990 10988 10987 10985 10983 10982 10981 10978 10977 10973 10968 10964 10961 10957 10953 10950 10947
10946 10948 10948 10951 10951 10953 10953 10955 10956 10955 10953 10954 10955 10957 10961 10964 10968 10969 10972 10975 10978 10981 10983 10985 10987 10988 10990 10992 10991 10991 10991 10990 10989 10988 10987 10985 10984 10983 10981 10979 10977 10973 10970 10965 10961 10958 10955 10951 10946
10937 10938 10942 10945 10949 10950 10950 10954 10955 10956 10955 10956 10957 10961 10962 10965 10969 10971 10971 10973 10976 10978 10980 10983 10986 10989 10990 10990 10990 10989 10989 10989 10988 10986 10985 10983 10982 10981 10980 10978 10975 10971 10968 10964 10961 10958 10954 10950 10945
10928 10924 10934 10940 10944 10946 10949 10952 10955 10957 10958 10957 10959 10962 10963 10965 10970 10973 10974 10975 10977 10979 10981 10983 10986 10988 10988 10988 10988 10988 10987 10986 10986 10985 10984 10982 10980 10980 10978 10975 10973 10971 10967 10964 10961 10956 10952 10948 10945
10905 10921 10928 10934 10939 10945 10948 10949 10953 10956 10955 10956 10959 10958 10959 10964 10967 10971 10975 10977 10977 10979 10981 10983 10984 10985 10986 10986 10986 10986 10985 10985 10983 10982 10981 10980 10979 10978 10975 10973 10972 10969 10966 10963 10959 10955 10952 10947 10942
10894 10912 10919 10925 10933 10943 10945 10946 10948 10948 10950 10953 10957 10958 10957 10963 10967 10970 10970 10973 10974 10975 10978 10979 10980 10981 10983 10984 10985 10984 10984 10983 10983 10982 10980 10978 10975 10974 10974 10973 10969 10967 10964 10961 10956 10952 10949 10945 10939
10888 10897 10908 10916 10927 10935 10930 10940 10936 10941 10945 10947 10952 10954 10957 10960 10966 10966 10969 10971 10973 10974 10975 10976 10978 10979 10979 10980 10980 10981 10980 10980 10980 10980 10979 10977 10974 10972 10971 10969 10966 10963 10960 10957 10953 10950 10946 10941 10936
10883 10887 10896 10904 10915 10918 10922 10936 10931 10936 10940 10943 10947 10949 10954 10956 10960 10961 10963 10967 10969 10970 10972 10974 10974 10975 10976 10976 10977 10976 10976 10976 10976 10975 10974 10973 10971 10969 10966 10964 10962 10959 10955 10952 10949 10944 10940 10936 10932
10871 10880 10879 10894 10900 10909 10919 10925 10923 10931 10936 10936 10942 10946 10946 10950 10955 10955 10957 10960 10964 10964 10967 10970 10971 10971 10972 10972 10971 10972 10971 10970 10970 10971 10970 10968 10965 10963 10961 10959 10956 10953 10951 10947 10943 10939 10934 10929 10925
10868 10865 10871 10883 10890 10898 10904 10911 10920 10917 10924 10930 10933 10937 10940 10944 10944 10946 10951 10952 10957 10961 10962 10962 10966 10966 10966 10967 10966 10965 10965 10965 10965 10966 10965 10962 10960 10957 10956 10955 10953 10949 10944 10940 10935 10931 10927 10922 10916
10857 10861 10863 10867 10878 10888 10894 10910 10904 10904 10908 10916 10920 10925 10928 10935 10939 10939 10942 10945 10949 10951 10954 10956 10959 10959 10960 10960 10960 10959 10959 10958 10958 10958 10958 10958 10954 10951 10949 10949 10948 10944 10938 10933 10926 10922 10919 10915 10909
10848 10855 10859 10864 10868 10874 10882 10896 10884 10889 10899 10903 10908 10916 10919 10923 10928 10932 10934 10938 10942 10945 10944 10946 10950 10952 10953 10952 10953 10953 10952 10952 10952 10951 10950 10951 10950 10946 10945 10943 10940 10937 10933 10927 10921 10913 10908 10904 10900